<?xml version="1.0" encoding="UTF-8" standalone="no" ?>
<gpx xmlns="http://www.topografix.com/GPX/1/1" xmlns:xsi="http://www.w3.org/2001/XMLSchema-instance" xsi:schemaLocation="http://www.topografix.com/GPX/1/1 http://www.topografix.com/GPX/1/1/gpx.xsd" version="1.1" creator="VisuGPX - https://www.visugpx.com">
  <metadata>
    <name>GR8S2_BarreMontsLesSables</name>
    <desc><![CDATA[gnerando idor: 12420232_12420290_12420300_12420307]]></desc>
  </metadata>
  <trk>
    <name><![CDATA[GR8S2J4_MFLaTantouilleLesSables_19km_-12420307]]></name>
    <extensions>
      <line xmlns="http://www.topografix.com/GPX/gpx_style/0/2">
        <color>0000FF</color>
        <width>4</width>
      </line>
    </extensions>
    <trkseg>
      <trkpt lat="46.56125" lon="-1.8109">
        <ele>11</ele>
        <time>2023-10-30T14:32:35Z</time>
      </trkpt>
      <trkpt lat="46.56195" lon="-1.8109">
        <ele>15</ele>
        <time>2023-10-30T14:34:08Z</time>
      </trkpt>
      <trkpt lat="46.56257" lon="-1.81007">
        <ele>13</ele>
        <time>2023-10-30T14:36:01Z</time>
      </trkpt>
      <trkpt lat="46.56294" lon="-1.80987">
        <ele>11</ele>
        <time>2023-10-30T14:36:54Z</time>
      </trkpt>
      <trkpt lat="46.56343" lon="-1.81011">
        <ele>11</ele>
        <time>2023-10-30T14:38:03Z</time>
      </trkpt>
      <trkpt lat="46.56442" lon="-1.81185">
        <ele>11</ele>
        <time>2023-10-30T14:41:30Z</time>
      </trkpt>
      <trkpt lat="46.56484" lon="-1.81204">
        <ele>8</ele>
        <time>2023-10-30T14:42:28Z</time>
      </trkpt>
      <trkpt lat="46.56545" lon="-1.81133">
        <ele>1</ele>
        <time>2023-10-30T14:44:13Z</time>
      </trkpt>
      <trkpt lat="46.56572" lon="-1.81086">
        <ele>2</ele>
        <time>2023-10-30T14:45:09Z</time>
      </trkpt>
      <trkpt lat="46.56597" lon="-1.81058">
        <ele>2.5</ele>
        <time>2023-10-30T14:45:51Z</time>
      </trkpt>
      <trkpt lat="46.56625" lon="-1.80998">
        <ele>2</ele>
        <time>2023-10-30T14:46:58Z</time>
      </trkpt>
      <trkpt lat="46.56667" lon="-1.80953">
        <ele>-1</ele>
        <time>2023-10-30T14:48:07Z</time>
      </trkpt>
      <trkpt lat="46.56721" lon="-1.80951">
        <ele>2</ele>
        <time>2023-10-30T14:49:19Z</time>
      </trkpt>
      <trkpt lat="46.56811" lon="-1.8083">
        <ele>1</ele>
        <time>2023-10-30T14:52:03Z</time>
      </trkpt>
      <trkpt lat="46.5692" lon="-1.80966">
        <ele>1</ele>
        <time>2023-10-30T14:55:14Z</time>
      </trkpt>
      <trkpt lat="46.57088" lon="-1.80891">
        <ele>1.2</ele>
        <time>2023-10-30T14:59:09Z</time>
      </trkpt>
      <trkpt lat="46.57145" lon="-1.81034">
        <ele>1</ele>
        <time>2023-10-30T15:01:41Z</time>
      </trkpt>
      <trkpt lat="46.57128" lon="-1.8109">
        <ele>1</ele>
        <time>2023-10-30T15:02:37Z</time>
      </trkpt>
      <trkpt lat="46.57163" lon="-1.81157">
        <ele>2</ele>
        <time>2023-10-30T15:03:54Z</time>
      </trkpt>
      <trkpt lat="46.57257" lon="-1.81264">
        <ele>1</ele>
        <time>2023-10-30T15:06:33Z</time>
      </trkpt>
      <trkpt lat="46.57227" lon="-1.81343">
        <ele>2</ele>
        <time>2023-10-30T15:07:56Z</time>
      </trkpt>
      <trkpt lat="46.57305" lon="-1.81343">
        <ele>1</ele>
        <time>2023-10-30T15:09:40Z</time>
      </trkpt>
      <trkpt lat="46.57421" lon="-1.81281">
        <ele>1</ele>
        <time>2023-10-30T15:12:25Z</time>
      </trkpt>
      <trkpt lat="46.57567" lon="-1.81099">
        <ele>1</ele>
        <time>2023-10-30T15:16:42Z</time>
      </trkpt>
      <trkpt lat="46.57656" lon="-1.81043">
        <ele>1</ele>
        <time>2023-10-30T15:18:51Z</time>
      </trkpt>
      <trkpt lat="46.57694" lon="-1.80985">
        <ele>1</ele>
        <time>2023-10-30T15:20:04Z</time>
      </trkpt>
      <trkpt lat="46.57758" lon="-1.80989">
        <ele>2</ele>
        <time>2023-10-30T15:21:30Z</time>
      </trkpt>
      <trkpt lat="46.5814" lon="-1.80706">
        <ele>2</ele>
        <time>2023-10-30T15:31:02Z</time>
      </trkpt>
      <trkpt lat="46.58176" lon="-1.8065">
        <ele>3</ele>
        <time>2023-10-30T15:32:12Z</time>
      </trkpt>
      <trkpt lat="46.58159" lon="-1.80588">
        <ele>2</ele>
        <time>2023-10-30T15:33:14Z</time>
      </trkpt>
      <trkpt lat="46.58147" lon="-1.80423">
        <ele>3</ele>
        <time>2023-10-30T15:35:46Z</time>
      </trkpt>
      <trkpt lat="46.58095" lon="-1.8014">
        <ele>4</ele>
        <time>2023-10-30T15:40:14Z</time>
      </trkpt>
      <trkpt lat="46.58154" lon="-1.80073">
        <ele>6</ele>
        <time>2023-10-30T15:41:54Z</time>
      </trkpt>
      <trkpt lat="46.58123" lon="-1.79936">
        <ele>5</ele>
        <time>2023-10-30T15:44:07Z</time>
      </trkpt>
      <trkpt lat="46.58081" lon="-1.79897">
        <ele>4</ele>
        <time>2023-10-30T15:45:13Z</time>
      </trkpt>
      <trkpt lat="46.58023" lon="-1.79678">
        <ele>3</ele>
        <time>2023-10-30T15:48:48Z</time>
      </trkpt>
      <trkpt lat="46.58027" lon="-1.79642">
        <ele>3</ele>
        <time>2023-10-30T15:49:22Z</time>
      </trkpt>
      <trkpt lat="46.57979" lon="-1.79554">
        <ele>5</ele>
        <time>2023-10-30T15:51:05Z</time>
      </trkpt>
      <trkpt lat="46.57957" lon="-1.79485">
        <ele>4</ele>
        <time>2023-10-30T15:52:15Z</time>
      </trkpt>
      <trkpt lat="46.57961" lon="-1.79444">
        <ele>5</ele>
        <time>2023-10-30T15:52:53Z</time>
      </trkpt>
      <trkpt lat="46.57989" lon="-1.79374">
        <ele>6</ele>
        <time>2023-10-30T15:54:07Z</time>
      </trkpt>
      <trkpt lat="46.57974" lon="-1.79298">
        <ele>7</ele>
        <time>2023-10-30T15:55:19Z</time>
      </trkpt>
      <trkpt lat="46.57918" lon="-1.79309">
        <ele>6</ele>
        <time>2023-10-30T15:56:35Z</time>
      </trkpt>
      <trkpt lat="46.57831" lon="-1.79228">
        <ele>8</ele>
        <time>2023-10-30T15:58:53Z</time>
      </trkpt>
      <trkpt lat="46.57694" lon="-1.79163">
        <ele>8</ele>
        <time>2023-10-30T16:02:05Z</time>
      </trkpt>
      <trkpt lat="46.57604" lon="-1.792">
        <ele>6</ele>
        <time>2023-10-30T16:04:10Z</time>
      </trkpt>
      <trkpt lat="46.57538" lon="-1.79105">
        <ele>5</ele>
        <time>2023-10-30T16:06:14Z</time>
      </trkpt>
      <trkpt lat="46.57464" lon="-1.79065">
        <ele>4</ele>
        <time>2023-10-30T16:07:59Z</time>
      </trkpt>
      <trkpt lat="46.57293" lon="-1.79183">
        <ele>1</ele>
        <time>2023-10-30T16:12:12Z</time>
      </trkpt>
      <trkpt lat="46.57281" lon="-1.7932">
        <ele>2.5</ele>
        <time>2023-10-30T16:14:18Z</time>
      </trkpt>
      <trkpt lat="46.57303" lon="-1.79429">
        <ele>1</ele>
        <time>2023-10-30T16:16:02Z</time>
      </trkpt>
      <trkpt lat="46.57294" lon="-1.7956">
        <ele>1</ele>
        <time>2023-10-30T16:18:03Z</time>
      </trkpt>
      <trkpt lat="46.57005" lon="-1.79683">
        <ele>1</ele>
        <time>2023-10-30T16:24:45Z</time>
      </trkpt>
      <trkpt lat="46.56955" lon="-1.79738">
        <ele>2</ele>
        <time>2023-10-30T16:26:09Z</time>
      </trkpt>
      <trkpt lat="46.56929" lon="-1.79809">
        <ele>3</ele>
        <time>2023-10-30T16:27:23Z</time>
      </trkpt>
      <trkpt lat="46.56936" lon="-1.7985">
        <ele>2</ele>
        <time>2023-10-30T16:28:01Z</time>
      </trkpt>
      <trkpt lat="46.56868" lon="-1.79927">
        <ele>2</ele>
        <time>2023-10-30T16:29:56Z</time>
      </trkpt>
      <trkpt lat="46.56843" lon="-1.79899">
        <ele>2</ele>
        <time>2023-10-30T16:30:38Z</time>
      </trkpt>
      <trkpt lat="46.56756" lon="-1.79582">
        <ele>2.8</ele>
        <time>2023-10-30T16:35:52Z</time>
      </trkpt>
      <trkpt lat="46.56694" lon="-1.79597">
        <ele>1</ele>
        <time>2023-10-30T16:37:15Z</time>
      </trkpt>
      <trkpt lat="46.56662" lon="-1.79502">
        <ele>1</ele>
        <time>2023-10-30T16:38:52Z</time>
      </trkpt>
      <trkpt lat="46.56431" lon="-1.795">
        <ele>1</ele>
        <time>2023-10-30T16:44:01Z</time>
      </trkpt>
      <trkpt lat="46.56414" lon="-1.79571">
        <ele>1</ele>
        <time>2023-10-30T16:45:10Z</time>
      </trkpt>
      <trkpt lat="46.56259" lon="-1.79554">
        <ele>1.7</ele>
        <time>2023-10-30T16:48:37Z</time>
      </trkpt>
      <trkpt lat="46.5633" lon="-1.79367">
        <ele>2.1</ele>
        <time>2023-10-30T16:51:53Z</time>
      </trkpt>
      <trkpt lat="46.56274" lon="-1.79311">
        <ele>1</ele>
        <time>2023-10-30T16:53:24Z</time>
      </trkpt>
      <trkpt lat="46.56219" lon="-1.79174">
        <ele>2</ele>
        <time>2023-10-30T16:55:49Z</time>
      </trkpt>
      <trkpt lat="46.56215" lon="-1.79116">
        <ele>1</ele>
        <time>2023-10-30T16:56:43Z</time>
      </trkpt>
      <trkpt lat="46.56232" lon="-1.79047">
        <ele>2</ele>
        <time>2023-10-30T16:57:50Z</time>
      </trkpt>
      <trkpt lat="46.56178" lon="-1.79007">
        <ele>1</ele>
        <time>2023-10-30T16:59:11Z</time>
      </trkpt>
      <trkpt lat="46.56138" lon="-1.78908">
        <ele>1</ele>
        <time>2023-10-30T17:00:56Z</time>
      </trkpt>
      <trkpt lat="46.56076" lon="-1.78882">
        <ele>1</ele>
        <time>2023-10-30T17:02:22Z</time>
      </trkpt>
      <trkpt lat="46.55945" lon="-1.78934">
        <ele>1</ele>
        <time>2023-10-30T17:05:24Z</time>
      </trkpt>
      <trkpt lat="46.55878" lon="-1.78889">
        <ele>2.6</ele>
        <time>2023-10-30T17:07:02Z</time>
      </trkpt>
      <trkpt lat="46.55846" lon="-1.78833">
        <ele>-1</ele>
        <time>2023-10-30T17:08:09Z</time>
      </trkpt>
      <trkpt lat="46.55846" lon="-1.78798">
        <ele>-1</ele>
        <time>2023-10-30T17:08:41Z</time>
      </trkpt>
      <trkpt lat="46.55852" lon="-1.78801">
        <ele>-1</ele>
        <time>2023-10-30T17:08:50Z</time>
      </trkpt>
      <trkpt lat="46.55787" lon="-1.78835">
        <ele>2</ele>
        <time>2023-10-30T17:10:22Z</time>
      </trkpt>
      <trkpt lat="46.55561" lon="-1.78923">
        <ele>2</ele>
        <time>2023-10-30T17:15:34Z</time>
      </trkpt>
      <trkpt lat="46.55524" lon="-1.78964">
        <ele>2</ele>
        <time>2023-10-30T17:16:36Z</time>
      </trkpt>
      <trkpt lat="46.55469" lon="-1.79101">
        <ele>2</ele>
        <time>2023-10-30T17:19:02Z</time>
      </trkpt>
      <trkpt lat="46.55314" lon="-1.78854">
        <ele>1</ele>
        <time>2023-10-30T17:24:08Z</time>
      </trkpt>
      <trkpt lat="46.55272" lon="-1.78826">
        <ele>1</ele>
        <time>2023-10-30T17:25:10Z</time>
      </trkpt>
      <trkpt lat="46.55233" lon="-1.78878">
        <ele>3</ele>
        <time>2023-10-30T17:26:21Z</time>
      </trkpt>
      <trkpt lat="46.54789" lon="-1.78792">
        <ele>2</ele>
        <time>2023-10-30T17:36:18Z</time>
      </trkpt>
      <trkpt lat="46.54693" lon="-1.78833">
        <ele>1</ele>
        <time>2023-10-30T17:38:32Z</time>
      </trkpt>
      <trkpt lat="46.54625" lon="-1.78936">
        <ele>1.7</ele>
        <time>2023-10-30T17:40:43Z</time>
      </trkpt>
      <trkpt lat="46.5451" lon="-1.7918">
        <ele>2</ele>
        <time>2023-10-30T17:45:15Z</time>
      </trkpt>
      <trkpt lat="46.54503" lon="-1.79236">
        <ele>1</ele>
        <time>2023-10-30T17:46:07Z</time>
      </trkpt>
      <trkpt lat="46.54419" lon="-1.79378">
        <ele>1</ele>
        <time>2023-10-30T17:48:59Z</time>
      </trkpt>
      <trkpt lat="46.54336" lon="-1.79565">
        <ele>2</ele>
        <time>2023-10-30T17:52:23Z</time>
      </trkpt>
      <trkpt lat="46.54292" lon="-1.79635">
        <ele>4</ele>
        <time>2023-10-30T17:53:50Z</time>
      </trkpt>
      <trkpt lat="46.54268" lon="-1.79726">
        <ele>5</ele>
        <time>2023-10-30T17:55:19Z</time>
      </trkpt>
      <trkpt lat="46.54222" lon="-1.79786">
        <ele>5</ele>
        <time>2023-10-30T17:56:42Z</time>
      </trkpt>
      <trkpt lat="46.54155" lon="-1.79932">
        <ele>4</ele>
        <time>2023-10-30T17:59:23Z</time>
      </trkpt>
      <trkpt lat="46.54103" lon="-1.80073">
        <ele>3</ele>
        <time>2023-10-30T18:01:50Z</time>
      </trkpt>
      <trkpt lat="46.54014" lon="-1.80221">
        <ele>1</ele>
        <time>2023-10-30T18:04:50Z</time>
      </trkpt>
      <trkpt lat="46.53933" lon="-1.80318">
        <ele>1</ele>
        <time>2023-10-30T18:07:10Z</time>
      </trkpt>
      <trkpt lat="46.53814" lon="-1.80421">
        <ele>2.1</ele>
        <time>2023-10-30T18:10:15Z</time>
      </trkpt>
      <trkpt lat="46.53623" lon="-1.80519">
        <ele>1</ele>
        <time>2023-10-30T18:14:45Z</time>
      </trkpt>
      <trkpt lat="46.53433" lon="-1.80659">
        <ele>1</ele>
        <time>2023-10-30T18:19:30Z</time>
      </trkpt>
      <trkpt lat="46.53421" lon="-1.80618">
        <ele>1</ele>
        <time>2023-10-30T18:20:11Z</time>
      </trkpt>
      <trkpt lat="46.53031" lon="-1.80899">
        <ele>1</ele>
        <time>2023-10-30T18:29:51Z</time>
      </trkpt>
      <trkpt lat="46.52915" lon="-1.80876">
        <ele>2</ele>
        <time>2023-10-30T18:32:28Z</time>
      </trkpt>
      <trkpt lat="46.52876" lon="-1.80788">
        <ele>4</ele>
        <time>2023-10-30T18:34:04Z</time>
      </trkpt>
      <trkpt lat="46.5282" lon="-1.80745">
        <ele>4</ele>
        <time>2023-10-30T18:35:28Z</time>
      </trkpt>
      <trkpt lat="46.52783" lon="-1.80592">
        <ele>4</ele>
        <time>2023-10-30T18:37:57Z</time>
      </trkpt>
      <trkpt lat="46.52773" lon="-1.80622">
        <ele>4</ele>
        <time>2023-10-30T18:38:28Z</time>
      </trkpt>
      <trkpt lat="46.52671" lon="-1.80672">
        <ele>1</ele>
        <time>2023-10-30T18:40:51Z</time>
      </trkpt>
      <trkpt lat="46.52608" lon="-1.80659">
        <ele>3</ele>
        <time>2023-10-30T18:42:16Z</time>
      </trkpt>
      <trkpt lat="46.52517" lon="-1.80683">
        <ele>4</ele>
        <time>2023-10-30T18:44:20Z</time>
      </trkpt>
      <trkpt lat="46.5251" lon="-1.80764">
        <ele>2</ele>
        <time>2023-10-30T18:45:35Z</time>
      </trkpt>
      <trkpt lat="46.52439" lon="-1.8076">
        <ele>1</ele>
        <time>2023-10-30T18:47:10Z</time>
      </trkpt>
      <trkpt lat="46.52419" lon="-1.81067">
        <ele>6</ele>
        <time>2023-10-30T18:51:53Z</time>
      </trkpt>
      <trkpt lat="46.52467" lon="-1.81133">
        <ele>9</ele>
        <time>2023-10-30T18:53:21Z</time>
      </trkpt>
      <trkpt lat="46.52551" lon="-1.81301">
        <ele>14</ele>
        <time>2023-10-30T18:56:32Z</time>
      </trkpt>
      <trkpt lat="46.52572" lon="-1.81425">
        <ele>14</ele>
        <time>2023-10-30T18:58:29Z</time>
      </trkpt>
      <trkpt lat="46.52568" lon="-1.81723">
        <ele>13</ele>
        <time>2023-10-30T19:03:02Z</time>
      </trkpt>
      <trkpt lat="46.52602" lon="-1.81914">
        <ele>9</ele>
        <time>2023-10-30T19:06:04Z</time>
      </trkpt>
      <trkpt lat="46.52653" lon="-1.82103">
        <ele>6</ele>
        <time>2023-10-30T19:09:10Z</time>
      </trkpt>
      <trkpt lat="46.52662" lon="-1.82206">
        <ele>3</ele>
        <time>2023-10-30T19:10:45Z</time>
      </trkpt>
      <trkpt lat="46.52271" lon="-1.82088">
        <ele>4</ele>
        <time>2023-10-30T19:19:38Z</time>
      </trkpt>
      <trkpt lat="46.52176" lon="-1.82079">
        <ele>3</ele>
        <time>2023-10-30T19:21:45Z</time>
      </trkpt>
      <trkpt lat="46.52106" lon="-1.82052">
        <ele>4</ele>
        <time>2023-10-30T19:23:22Z</time>
      </trkpt>
      <trkpt lat="46.52104" lon="-1.82013">
        <ele>6</ele>
        <time>2023-10-30T19:23:58Z</time>
      </trkpt>
      <trkpt lat="46.52126" lon="-1.81979">
        <ele>8</ele>
        <time>2023-10-30T19:24:41Z</time>
      </trkpt>
      <trkpt lat="46.52098" lon="-1.81957">
        <ele>8</ele>
        <time>2023-10-30T19:25:23Z</time>
      </trkpt>
      <trkpt lat="46.52039" lon="-1.81938">
        <ele>7</ele>
        <time>2023-10-30T19:26:44Z</time>
      </trkpt>
      <trkpt lat="46.5199" lon="-1.81895">
        <ele>7</ele>
        <time>2023-10-30T19:28:00Z</time>
      </trkpt>
      <trkpt lat="46.51809" lon="-1.81833">
        <ele>5</ele>
        <time>2023-10-30T19:32:08Z</time>
      </trkpt>
      <trkpt lat="46.51714" lon="-1.81852">
        <ele>4</ele>
        <time>2023-10-30T19:34:16Z</time>
      </trkpt>
      <trkpt lat="46.51581" lon="-1.81794">
        <ele>6</ele>
        <time>2023-10-30T19:37:22Z</time>
      </trkpt>
      <trkpt lat="46.5146" lon="-1.818">
        <ele>6</ele>
        <time>2023-10-30T19:40:03Z</time>
      </trkpt>
      <trkpt lat="46.51366" lon="-1.81837">
        <ele>5</ele>
        <time>2023-10-30T19:42:13Z</time>
      </trkpt>
      <trkpt lat="46.51255" lon="-1.81768">
        <ele>9</ele>
        <time>2023-10-30T19:44:54Z</time>
      </trkpt>
      <trkpt lat="46.51166" lon="-1.81749">
        <ele>8</ele>
        <time>2023-10-30T19:46:54Z</time>
      </trkpt>
      <trkpt lat="46.51119" lon="-1.8177">
        <ele>7</ele>
        <time>2023-10-30T19:48:00Z</time>
      </trkpt>
      <trkpt lat="46.51063" lon="-1.81833">
        <ele>3</ele>
        <time>2023-10-30T19:49:34Z</time>
      </trkpt>
      <trkpt lat="46.51026" lon="-1.81861">
        <ele>3</ele>
        <time>2023-10-30T19:50:30Z</time>
      </trkpt>
      <trkpt lat="46.50942" lon="-1.81811">
        <ele>3</ele>
        <time>2023-10-30T19:52:31Z</time>
      </trkpt>
      <trkpt lat="46.50892" lon="-1.81792">
        <ele>2</ele>
        <time>2023-10-30T19:53:40Z</time>
      </trkpt>
      <trkpt lat="46.5083" lon="-1.81738">
        <ele>2</ele>
        <time>2023-10-30T19:55:17Z</time>
      </trkpt>
      <trkpt lat="46.50638" lon="-1.81695">
        <ele>2</ele>
        <time>2023-10-30T19:59:36Z</time>
      </trkpt>
      <trkpt lat="46.50506" lon="-1.81586">
        <ele>5</ele>
        <time>2023-10-30T20:02:59Z</time>
      </trkpt>
      <trkpt lat="46.50466" lon="-1.8156">
        <ele>5</ele>
        <time>2023-10-30T20:03:57Z</time>
      </trkpt>
      <trkpt lat="46.50435" lon="-1.81528">
        <ele>5</ele>
        <time>2023-10-30T20:04:48Z</time>
      </trkpt>
      <trkpt lat="46.50407" lon="-1.8156">
        <ele>3</ele>
        <time>2023-10-30T20:05:35Z</time>
      </trkpt>
      <trkpt lat="46.503" lon="-1.81515">
        <ele>4</ele>
        <time>2023-10-30T20:08:04Z</time>
      </trkpt>
      <trkpt lat="46.50242" lon="-1.81466">
        <ele>4</ele>
        <time>2023-10-30T20:09:33Z</time>
      </trkpt>
      <trkpt lat="46.50187" lon="-1.81451">
        <ele>5</ele>
        <time>2023-10-30T20:10:48Z</time>
      </trkpt>
      <trkpt lat="46.50081" lon="-1.81481">
        <ele>3</ele>
        <time>2023-10-30T20:13:12Z</time>
      </trkpt>
      <trkpt lat="46.49908" lon="-1.81461">
        <ele>3</ele>
        <time>2023-10-30T20:17:04Z</time>
      </trkpt>
      <trkpt lat="46.49818" lon="-1.81425">
        <ele>3</ele>
        <time>2023-10-30T20:19:08Z</time>
      </trkpt>
      <trkpt lat="46.49694" lon="-1.81395">
        <ele>3</ele>
        <time>2023-10-30T20:21:56Z</time>
      </trkpt>
      <trkpt lat="46.49679" lon="-1.81335">
        <ele>6</ele>
        <time>2023-10-30T20:22:55Z</time>
      </trkpt>
      <trkpt lat="46.4961" lon="-1.81307">
        <ele>7</ele>
        <time>2023-10-30T20:24:30Z</time>
      </trkpt>
      <trkpt lat="46.49478" lon="-1.81217">
        <ele>8</ele>
        <time>2023-10-30T20:27:45Z</time>
      </trkpt>
      <trkpt lat="46.49427" lon="-1.81193">
        <ele>7</ele>
        <time>2023-10-30T20:28:57Z</time>
      </trkpt>
      <trkpt lat="46.49226" lon="-1.80925">
        <ele>5</ele>
        <time>2023-10-30T20:35:01Z</time>
      </trkpt>
      <trkpt lat="46.49211" lon="-1.80852">
        <ele>4</ele>
        <time>2023-10-30T20:36:11Z</time>
      </trkpt>
      <trkpt lat="46.49224" lon="-1.80751">
        <ele>6</ele>
        <time>2023-10-30T20:37:45Z</time>
      </trkpt>
      <trkpt lat="46.49212" lon="-1.80691">
        <ele>7</ele>
        <time>2023-10-30T20:38:42Z</time>
      </trkpt>
      <trkpt lat="46.49144" lon="-1.80601">
        <ele>7</ele>
        <time>2023-10-30T20:40:45Z</time>
      </trkpt>
      <trkpt lat="46.49025" lon="-1.80344">
        <ele>11</ele>
        <time>2023-10-30T20:45:30Z</time>
      </trkpt>
      <trkpt lat="46.49007" lon="-1.80268">
        <ele>12</ele>
        <time>2023-10-30T20:46:44Z</time>
      </trkpt>
      <trkpt lat="46.49001" lon="-1.80155">
        <ele>14</ele>
        <time>2023-10-30T20:48:28Z</time>
      </trkpt>
      <trkpt lat="46.48933" lon="-1.79899">
        <ele>6</ele>
        <time>2023-10-30T20:52:40Z</time>
      </trkpt>
    </trkseg>
  </trk>
</gpx>